www.pogodaiklimat.ru

Погода и климат >> Архив погоды >> Австралия >> Moomba Airport


ПОГОДА в Moomba Airport

  • Прогноз погоды в Moomba Airport
  • Монитор погоды в Moomba Airport
  • Климат города

АРХИВ ПОГОДЫ в Moomba Airport

Время (UTC), дата Ветер
(напр.,м/с)
 
Видим.   Явления Облачность Т
(С)
Тd
(С)
f
(%)
Тe
(С)
Тes
(С)
Комфортность P
(гПа)
Po
(гПа)
Тmin
(С)
Tmax
(С)
R
(мм)
R24
(мм)
S
(см)
23 17.05 ЮВ 6 н/о н/о +10.1 -2.2 42 +7 +7 1028.1 1023.5
22 17.05 Ю 5 н/о н/о +7.1 -2.1 52 +4 +4 1027.7 1023.1
00 18.05 ЮВ 7 н/о н/о +13.2 -1.9 35 +11 +11 1028.5 1023.9
01 18.05 ЮВ 7 н/о н/о +14.9 -8.5 19 +13 +13 1028.4 1023.8
02 18.05 ЮВ 7 н/о н/о +16.1 -12.3 13 +15 +15 1027.6 1023.0
03 18.05 Ю 6 н/о н/о +17.4 +0.6 32 +17 +17 1026.4 1021.8
05 18.05 Ю 5 н/о н/о +18.1 +0.3 30 +18 +18 1025.1 1020.5
04 18.05 Ю 6 н/о н/о +17.8 0.0 30 +17 +17 1025.6 1021.0
06 18.05 Ю 6 н/о н/о +17.8 -0.5 29 +17 +17 1024.9 1020.3
07 18.05 Ю 6 н/о н/о +17.7 +0.8 32 +17 +17 1024.7 1020.1
08 18.05 Ю 5 н/о н/о +16.4 +1.3 36 +16 +16 1024.7 1020.1
09 18.05 Ю 5 н/о н/о +15.1 +1.3 39 +14 +14 1025.0 1020.4
11 18.05 Ю 4 н/о н/о +12.2 +1.2 47 +11 +11 1025.7 1021.1
10 18.05 Ю 4 н/о н/о +13.8 +1.5 43 +13 +13 1025.4 1020.8
12 18.05 Ю 3 н/о н/о +10.6 -2.4 40 +9 +9 1025.9 1021.3
13 18.05 Ю 4 н/о н/о +9.6 -2.3 43 +8 +8 1025.9 1021.3
14 18.05 Ю 3 н/о н/о +9.1 -0.8 50 +7 +7 1025.3 1020.7
15 18.05 Ю 3 н/о н/о +8.6 -0.2 54 +7 +7 1024.9 1020.3
17 18.05 Ю 3 н/о н/о +7.4 +0.6 62 +5 +5 1024.6 1020.0
16 18.05 Ю 3 н/о н/о +8.8 +0.8 57 +7 +7 1024.7 1020.1
18 18.05 Ю 4 н/о н/о +9.0 +1.9 61 +6 +6 1024.7 1020.1
19 18.05 Ю 3 н/о н/о +8.6 +1.7 62 +6 +6 1024.5 1019.9
20 18.05 Ю 3 н/о н/о +7.1 +1.2 66 +5 +5 1025.1 1020.5
21 18.05 Ю 4 н/о н/о +7.8 +2.1 67 +5 +5 1025.7 1021.1
23 18.05 Ю 5 н/о н/о +11.8 +2.8 54 +10 +10 1026.6 1022.0
22 18.05 Ю 4 н/о н/о +8.0 +1.8 65 +5 +5 1026.2 1021.6
00 19.05 ЮВ 5 н/о н/о +15.0 -0.3 35 +14 +14 1026.5 1021.9
01 19.05 ЮВ 6 н/о н/о +16.9 -2.2 27 +16 +16 1026.3 1021.7
02 19.05 В 7 н/о н/о +18.7 +0.8 30 +18 +18 1025.7 1021.1
03 19.05 В 5 н/о н/о +19.6 -0.9 25 +19 +19 1024.7 1020.1
05 19.05 ЮВ 5 н/о н/о +21.1 +5.1 35 +22 +22 комфорт 1023.3 1018.7
04 19.05 ЮВ 5 н/о н/о +20.8 +5.2 36 +22 +22 комфорт 1023.8 1019.2
06 19.05 ЮВ 4 н/о н/о +21.2 +4.7 34 +22 +22 комфорт 1023.1 1018.5
07 19.05 Ю 4 н/о н/о +20.9 +5.7 37 +22 +22 комфорт 1023.2 1018.6
08 19.05 Ю 4 н/о н/о +19.7 +6.1 41 +20 +20 1023.4 1018.8
09 19.05 Ю 4 н/о н/о +18.0 +5.9 45 +18 +18 1023.9 1019.3
11 19.05 Ю 5 н/о н/о +16.5 +5.8 49 +16 +16 1025.0 1020.4
10 19.05 Ю 4 н/о н/о +16.6 +5.6 48 +16 +16 1024.6 1020.0
12 19.05 Ю 4 н/о н/о +14.5 +4.5 51 +14 +14 1025.2 1020.6
13 19.05 Ю 4 н/о н/о +13.9 +4.5 53 +13 +13 1025.2 1020.6
14 19.05 Ю 3 н/о н/о +11.8 +4.1 59 +11 +11 1024.9 1020.3
15 19.05 Ю 3 н/о н/о +11.0 +3.8 61 +10 +10 1024.6 1020.0
17 19.05 Ю 3 н/о н/о +11.6 +3.9 59 +10 +10 1024.5 1019.9
16 19.05 Ю 3 н/о н/о +11.0 +3.5 60 +10 +10 1024.6 1020.0
18 19.05 Ю 3 н/о н/о +11.2 +3.5 59 +10 +10 1024.5 1019.9
19 19.05 ЮВ 1 н/о н/о +9.0 +2.6 64 +9 +9 1024.7 1020.1
20 19.05 Ю 2 н/о н/о +9.4 +2.7 63 +8 +8 1025.1 1020.5
21 19.05 Ю 2 н/о н/о +8.8 +2.4 64 +7 +7 1025.8 1021.2
23 19.05 ЮВ 3 н/о н/о +13.2 +3.3 51 +12 +12 1027.3 1022.7
22 19.05 Ю 2 н/о н/о +9.9 +3.0 62 +9 +9 1026.6 1022.0
00 20.05 В 4 н/о н/о +17.1 +0.7 33 +17 +17 1027.5 1022.9
01 20.05 В 5 н/о н/о +19.8 -1.3 24 +20 +20 1027.3 1022.7
02 20.05 В 4 н/о н/о +20.9 -0.4 24 +21 +21 комфорт 1026.9 1022.3
03 20.05 ЮВ 4 н/о н/о +21.2 -2.6 20 +20 +20 1026.0 1021.4
05 20.05 ЮВ 5 н/о н/о +22.3 +2.9 28 +22 +22 комфорт 1024.5 1019.9
04 20.05 В 4 н/о н/о +21.6 -3.7 18 +21 +21 комфорт 1025.0 1020.4
06 20.05 ЮВ 5 н/о н/о +21.7 +2.4 28 +22 +22 комфорт 1024.6 1020.0
07 20.05 Ю 5 н/о н/о +21.3 +3.0 30 +21 +21 комфорт 1024.7 1020.1
08 20.05 Ю 4 н/о н/о +19.5 +2.4 32 +20 +20 1025.1 1020.5
09 20.05 Ю 4 н/о н/о +18.0 +1.9 34 +18 +18 1025.6 1021.0
11 20.05 Ю 5 н/о н/о +15.6 +1.0 37 +15 +15 1027.4 1022.8
10 20.05 Ю 4 н/о н/о +16.4 +0.1 33 +16 +16 1026.6 1022.0
12 20.05 Ю 4 н/о н/о +14.3 +2.2 44 +13 +13 1027.7 1023.1
13 20.05 Ю 5 н/о н/о +13.7 +3.8 51 +12 +12 1027.8 1023.2
14 20.05 Ю 5 н/о н/о +13.6 +3.9 52 +12 +12 1027.6 1023.0
15 20.05 Ю 5 н/о н/о +13.2 +1.2 44 +11 +11 1027.4 1022.8
17 20.05 ЮВ 5 н/о н/о +12.3 +0.1 43 +10 +10 1026.8 1022.2
16 20.05 ЮВ 6 н/о н/о +14.3 +0.6 39 +13 +13 1027.0 1022.4
18 20.05 ЮВ 5 н/о н/о +11.8 0.0 44 +10 +10 1026.9 1022.3
19 20.05 ЮВ 5 н/о н/о +10.8 0.0 47 +9 +9 1027.0 1022.4
20 20.05 ЮВ 5 н/о н/о +10.1 +0.2 50 +8 +8 1027.3 1022.7
21 20.05 ЮВ 4 н/о н/о +9.8 +0.4 52 +8 +8 1028.0 1023.4
23 20.05 Ю 3 н/о н/о +11.0 -0.5 45 +10 +10 1029.5 1024.9
22 20.05 Ю 2 н/о н/о +9.4 -0.8 49 +8 +8 1028.7 1024.1
00 21.05 ЮВ 4 н/о н/о +14.2 -2.7 31 +13 +13 1030.0 1025.4
01 21.05 Ю 5 н/о н/о +15.5 -3.9 26 +15 +15 1030.0 1025.4
02 21.05 ЮВ 5 н/о н/о +17.8 +3.7 39 +17 +17 1029.0 1024.4
03 21.05 Ю 6 н/о н/о +19.2 +2.6 33 +19 +19 1028.0 1023.4
05 21.05 Ю 6 н/о н/о +20.3 +2.2 30 +20 +20 1026.8 1022.2
04 21.05 Ю 6 н/о н/о +20.2 +2.1 30 +20 +20 1027.2 1022.6
06 21.05 Ю 6 н/о н/о +20.9 +4.5 34 +21 +21 комфорт 1026.8 1022.2
07 21.05 Ю 6 н/о н/о +20.7 +4.3 34 +21 +21 комфорт 1027.0 1022.4
08 21.05 Ю 4 н/о н/о +19.6 +4.1 36 +20 +20 1027.5 1022.9
09 21.05 Ю 4 н/о н/о +18.0 +4.6 41 +18 +18 1027.8 1023.2
11 21.05 Ю 3 н/о н/о +13.9 +3.7 50 +13 +13 1028.6 1024.0
10 21.05 Ю 3 н/о н/о +15.7 +4.1 46 +15 +15 1028.2 1023.6
12 21.05 Ю 4 н/о н/о +13.8 +3.9 51 +13 +13 1029.0 1024.4
13 21.05 Ю 2 н/о н/о +11.5 +2.8 55 +11 +11 1028.6 1024.0
14 21.05 Ю 3 н/о н/о +10.5 0.0 48 +9 +9 1028.5 1023.9
15 21.05 Ю 3 н/о н/о +11.0 +1.0 50 +10 +10 1028.4 1023.8
17 21.05 Ю 4 н/о н/о +10.6 +2.4 57 +8 +8 1028.3 1023.7
16 21.05 Ю 4 н/о н/о +11.3 +2.1 53 +10 +10 1028.3 1023.7
18 21.05 Ю 2 н/о н/о +9.0 +1.7 60 +8 +8 1028.5 1023.9
19 21.05 Ю 4 н/о н/о +9.9 +2.7 61 +8 +8 1028.4 1023.8
20 21.05 Ю 5 н/о н/о +10.0 +2.8 61 +7 +7 1029.0 1024.4
21 21.05 Ю 5 н/о н/о +9.2 +2.3 62 +6 +6 1029.2 1024.6
23 21.05 Ю 5 н/о н/о +11.8 +2.3 52 +10 +10 1030.6 1026.0
22 21.05 Ю 3 н/о н/о +8.6 +2.4 65 +7 +7 1030.1 1025.5
00 22.05 ЮВ 5 н/о н/о +15.0 +1.9 41 +14 +14 1030.4 1025.8
01 22.05 ЮВ 6 н/о н/о +17.8 +4.7 42 +17 +17 1029.7 1025.1
02 22.05 ЮВ 6 н/о н/о +19.1 +4.5 38 +19 +19 1029.2 1024.6
03 22.05 ЮВ 5 н/о н/о +20.3 +1.2 28 +20 +20 1027.8 1023.2
05 22.05 Ю 6 н/о н/о +20.9 -1.0 23 +21 +21 комфорт 1026.0 1021.4
04 22.05 Ю 5 н/о н/о +21.0 -0.9 23 +21 +21 комфорт 1026.8 1022.2
06 22.05 Ю 6 н/о н/о +20.9 -2.2 21 +20 +20 1026.1 1021.5
07 22.05 Ю 6 н/о н/о +20.2 -2.8 21 +20 +20 1026.0 1021.4
08 22.05 Ю 5 н/о н/о +18.7 -1.2 26 +19 +19 1026.2 1021.6
09 22.05 Ю 4 н/о н/о +17.1 -0.1 31 +17 +17 1026.7 1022.1
11 22.05 Ю 4 н/о н/о +15.0 +0.8 38 +14 +14 1027.5 1022.9
10 22.05 Ю 4 н/о н/о +15.8 +0.4 35 +15 +15 1027.1 1022.5
12 22.05 Ю 5 н/о н/о +14.4 +1.0 40 +13 +13 1027.3 1022.7
13 22.05 Ю 5 н/о н/о +14.2 -0.3 37 +13 +13 1027.3 1022.7
14 22.05 Ю 4 н/о н/о +11.5 -0.3 44 +10 +10 1027.2 1022.6
15 22.05 Ю 4 н/о н/о +10.9 -2.1 40 +9 +9 1026.8 1022.2
17 22.05 Ю 6 н/о н/о +11.4 -1.7 40 +9 +9 1026.3 1021.7
16 22.05 Ю 4 н/о н/о +10.3 -2.0 42 +8 +8 1026.7 1022.1
18 22.05 Ю 5 н/о н/о +10.7 -1.4 43 +8 +8 1026.3 1021.7
19 22.05 Ю 4 н/о н/о +8.6 -1.2 50 +6 +6 1026.4 1021.8
20 22.05 Ю 4 н/о н/о +9.3 -0.3 51 +7 +7 1026.5 1021.9
21 22.05 ЮВ 6 н/о н/о +9.7 -0.2 50 +7 +7 1027.0 1022.4
23 22.05 ЮВ 5 н/о н/о +12.3 +0.1 43 +10 +10 1027.9 1023.3
22 22.05 ЮВ 5 н/о н/о +11.0 +0.1 47 +9 +9 1027.5 1022.9
00 23.05 ЮВ 6 н/о н/о +15.2 -0.5 34 +14 +14 1028.0 1023.4
01 23.05 В 7 н/о н/о +17.6 -2.6 25 +17 +17 1027.7 1023.1
02 23.05 В 6 н/о н/о +18.9 -4.5 20 +18 +18 1026.6 1022.0
03 23.05 В 6 н/о н/о +20.1 +5.7 39 +21 +21 комфорт 1025.2 1020.6
05 23.05 ЮВ 5 н/о н/о +21.4 +4.9 34 +22 +22 комфорт 1023.6 1019.0
04 23.05 ЮВ 5 н/о н/о +21.1 +5.5 36 +22 +22 комфорт 1024.1 1019.5
06 23.05 ЮВ 4 н/о н/о +21.4 +4.5 33 +22 +22 комфорт 1023.4 1018.8
07 23.05 Ю 5 н/о н/о +20.6 +4.6 35 +21 +21 комфорт 1023.2 1018.6
08 23.05 ЮВ 3 н/о н/о +19.2 +5.3 40 +20 +20 1023.4 1018.8
09 23.05 Ю 4 н/о н/о +18.3 +5.2 42 +18 +18 1023.9 1019.3
11 23.05 Ю 3 н/о н/о +15.0 +4.7 50 +15 +15 1025.0 1020.4
10 23.05 Ю 4 н/о н/о +17.3 +4.9 44 +17 +17 1024.3 1019.7
12 23.05 Ю 5 н/о н/о +15.6 +5.5 51 +15 +15 1024.7 1020.1
13 23.05 Ю 5 н/о н/о +15.7 +5.9 52 +15 +15 1024.5 1019.9
14 23.05 Ю 5 н/о н/о +15.5 +5.7 52 +14 +14 1024.0 1019.4
15 23.05 Ю 5 н/о н/о +15.3 +3.8 46 +14 +14 1023.4 1018.8
17 23.05 Ю 5 н/о н/о +14.8 +4.2 49 +14 +14 1022.5 1017.9
16 23.05 Ю 5 н/о н/о +15.2 +4.3 48 +14 +14 1022.9 1018.3
18 23.05 ЮВ 7 н/о н/о +15.3 +5.0 50 +14 +14 1022.5 1017.9
19 23.05 ЮВ 7 н/о н/о +14.8 +5.3 53 +13 +13 1021.8 1017.2
20 23.05 ЮВ 7 н/о н/о +14.7 +5.8 55 +13 +13 1022.0 1017.4
21 23.05 ЮВ 6 н/о н/о +14.2 +5.8 57 +12 +12 1022.8 1018.2
23 23.05 ЮВ 6 н/о н/о +14.6 +6.4 58 +13 +13 1023.8 1019.2
22 23.05 ЮВ 7 н/о н/о +13.9 +6.3 60 +12 +12 1023.3 1018.7
00 24.05 ЮВ 7 н/о н/о +15.7 +6.2 53 +14 +14 1024.1 1019.5
01 24.05 ЮВ 5 н/о н/о +17.4 +6.0 47 +17 +17 1024.3 1019.7
02 24.05 ЮВ 5 н/о н/о +18.0 +5.2 43 +18 +18 1023.6 1019.0
03 24.05 ЮВ 5 н/о н/о +20.2 +4.7 36 +21 +21 комфорт 1022.3 1017.7
05 24.05 ЮВ 4 н/о н/о +21.9 +7.7 40 +23 +23 комфорт 1021.0 1016.4
04 24.05 ЮВ 5 н/о н/о +20.7 +8.0 44 +22 +22 комфорт 1021.3 1016.7
06 24.05 ЮВ 5 н/о н/о +22.1 +7.5 39 +23 +23 комфорт 1020.6 1016.0
07 24.05 ЮВ 5 н/о н/о +21.8 +7.6 40 +23 +23 комфорт 1020.6 1016.0
08 24.05 ЮВ 5 н/о н/о +20.8 +7.8 43 +22 +22 комфорт 1021.1 1016.5
09 24.05 Ю 5 н/о н/о +19.3 +7.7 47 +20 +20 1021.7 1017.1
11 24.05 ЮВ 5 н/о н/о +18.4 +7.5 49 +18 +18 1022.4 1017.8
10 24.05 ЮВ 6 н/о н/о +19.1 +7.5 47 +19 +19 1022.1 1017.5
12 24.05 ЮВ 5 н/о н/о +16.7 +7.1 53 +16 +16 1022.6 1018.0
13 24.05 ЮВ 4 н/о н/о +15.8 +7.1 56 +15 +15 1022.7 1018.1
14 24.05 ЮВ 5 н/о н/о +15.1 +6.4 56 +14 +14 1022.6 1018.0
15 24.05 ЮВ 5 н/о н/о +14.3 +6.6 60 +13 +13 1022.1 1017.5
17 24.05 ЮВ 4 н/о н/о +12.9 +6.5 65 +11 +11 1021.8 1017.2
16 24.05 ЮВ 4 н/о н/о +13.9 +6.7 62 +13 +13 1021.9 1017.3
18 24.05 ЮВ 4 н/о н/о +12.2 +6.5 68 +10 +10 1021.8 1017.2
19 24.05 ЮВ 5 н/о н/о +12.1 +6.6 69 +10 +10 1021.8 1017.2
20 24.05 ЮВ 5 н/о н/о +11.3 +6.2 71 +9 +9 1022.1 1017.5
21 24.05 ЮВ 5 н/о н/о +11.8 +6.3 69 +9 +9 1022.8 1018.2
22 24.05 ЮВ 5 н/о н/о +11.2 +5.7 69 +9 +9 1023.4 1018.8

 

Местоположение метеостанции Moomba Airport (Южная Австралия, Австралия): широта -28.10 долгота 140.20 высота над уровнем моря 38 м.

В архиве по умолчанию представлена погода в Moomba Airport за последнюю неделю. Архивные данные за месяц целиком и за предыдущие месяцы, начиная с января 2011 года, Вы можете получить, выбрав интересующий диапазон дат из раскрывающегося списка и нажав кнопку "Ввод!".


*Определитесь, кто Вы:
робот инопланетянин человек

Внимание! Время в таблицах - всемирное. Для получения местного времени необходимо прибавить поправку, которая в Moomba Airport равна 9.5 ч.

Смотрите также архив погоды в соседних городах и на ближайших метеорологических станциях:

Погода в Ballera Gas Field (Квинсленд, Австралия) (176 км)
Погода в Tibooburra Airport (Новый Южный Уэльс, Австралия) (235 км)
Погода в Birdsville Airport (Квинсленд, Австралия) (259 км)
Погода в Marree Aero (Южная Австралия, Австралия) (271 км)
Погода в Leigh Creek Airport (Южная Австралия, Австралия) (327 км)
Погода в Thargomindah Airport (Квинсленд, Австралия) (355 км)
Погода в Fowlers Gap Aws (Новый Южный Уэльс, Австралия) (362 км)
Погода в White Cliffs Aws (Новый Южный Уэльс, Австралия) (413 км)
Погода в Olympic Dam Aerodrome (Южная Австралия, Австралия) (417 км)
Погода в Broken Hill Airport (Новый Южный Уэльс, Австралия) (450 км)

Пояснения к столбцам:

Ветер - указаны скорость ветра в м/с - средняя за 10 мин, порывы в срок и между сроками (в фигурных скобках) и направление, откуда дует ветер: С - северный, СВ - северо-восточный, В - восточный, ЮВ - юго-восточный, Ю - южный, ЮЗ - юго-западный, З - западный, СЗ - северо-западный.
Видимость - горизонтальная дальность видимости в метрах или километрах. При видимости от 1 до 10 км при отсутствии осадков обычно наблюдается дымка, при ухудшении видимости до 1 км и менее - туман. В сухую погоду видимость может ухудшаться дымом, пылью или мглою.
Явления - указаны атмосферные явления, наблюдавшиеся в срок или в последний час перед сроком; фигурными скобками обозначены явления, наблюдавшиеся между сроками (за 1-3 часа до срока); квадратными скобками обозначены град или гололедные отложения с указанием их диаметра в мм.
Облачность - указаны через наклонную черту общая и нижняя облачность в баллах и высота нижней границы облаков в метрах; квадратными скобками обозначены формы облаков: Ci - перистые, Cs - перисто-слоистые, Cc - перисто-кучевые, Ac - высококучевые, As - высокослоистые, Sc - слоисто-кучевые, Ns - слоисто-дождевые, Cu - кучевые, Cb - кучево-дождевые. Подробнее классификацию облаков см. в Атласе облаков (PDF).
T - Температура воздуха - температура, измеренная на высоте 2 м над землей.
Td - Температура точки росы - температура, при понижении до которой содержащийся в воздухе водяной пар достигнет насыщения.
f - Относительная влажность воздуха - влажноcть воздуха, измеренная на высоте 2 м над землей.
Te - Эффективная температура - температура, которую ощущает одетый по сезону человек в тени. Характеристика душности погоды. При расчете учитывается влияние влажности воздуха и скорости ветра на теплоощущения человека.
Tes - Эффективная температура на солнце - температура, которую ощущает человек, с поправкой на солнечный нагрев. Характеристика знойности погоды. Зависит от высоты солнца над горизонтом, облачности и скорости ветра. Ночью, в пасмурную погоду, а также при ветре 12 м/с и более поправка равна нулю.
P - Атмосферное давление - приведенное к уровню моря атмосферное давление.
Po - Атмосферное давление - измеренное на уровне метеостанции атмосферное давление.
Tmin - Минимальная температура - минимум температуры воздуха на высоте 2 м над землей.
Tmax - Максимальная температура - максимум температуры воздуха на высоте 2 м над землей.
R - Количество осадков - Количество выпавших осадков за период времени, мм. При наведении курсора мыши на число - период времени, за который выпало указанное количество осадков.
R24 - Количество осадков - Количество выпавших осадков за 24 часа, мм.
S - Снежный покров - Высота снежного покрова, см. При наведении курсора мыши на число - состояние снежного покрова и степень покрытия местности в баллах.